STARLINK-37695, 69824

Orbit data source: Space-Track

STARLINK-37695, 69824 is a payload satellite owned by SpaceX/Seattle (US) in LEO that was launched on Sun, 05 Jul 2026 UTC via an FALCON 9 launch vehicle from the Air Force Eastern Test Range (AFETR). Payload-class satellites include a variety of spacecraft equipped with specific instruments for various scientific and technological missions. These include communications satellites like Starlink; space stations such as the ISS; scientific satellites like the Hubble; Earth observation satellites from companies like Planet Labs, Umbra, and HawkEye 360; GPS; miniature CubeSats for education and research; and military/defense satellites.

Loading next visibility...
Identifier
69824, 2026-154F
Orbit
LEO
Country
Flag of USUS
Related business
Manufacturer
SpaceX/Seattle
Mission
Operational spacecraft
Bus & Motor
STARLINK V2MO, Unknown motor
Mass
575 kg wet, ~530 kg dry
Launch date (UTC)
2026-07-05 (2 months ago)
Launch vehicle
FALCON 9
Launch site
Air Force Eastern Test Range (AFETR)
Object type
Payload
Rocket body
Debris
Shape & HBR
BOX + PAN, 17.7 m
Radar Cross Section
Large (>1 m²)

Expand to show TLE details & history
Last TLE update: 22 hours ago

TLE from 22 hours ago
0 STARLINK-37695
1 69824U 26154F   26236.01070556  .00028909  00000-0  86270-3 0  9994
2 69824  53.1594 100.5186 0000995  72.6590 287.4521 15.34427075  9018
Epoch: 2026-08-24T00:15Z
TLE epoch observation values (Epoch: 2026-08-24T00:15:24.960Z)
Latitude
-0.00005°
Longitude
124.36602°
Altitude
463.32 km
Speed
7.636 km/s
True Right ascension
06h 42m 04s
True Declination
0° 00' 00"
Sunlit
Object was in daylight at epoch
Visualization orbit readout
Latitude
Unknown
Longitude
Unknown
Altitude
Unknown
Speed
Unknown
Apparent Right ascension
Unknown
Apparent Declination
Unknown
Sunlit
N/A
Visualization observer readout
Local Sidereal Time
13:47:30
Azimuth
Unknown
Elevation
Unknown
Doppler factor
Unknown
Orbital elements
Apogee altitude
463.56 km
Perigee altitude
462.199 km
Semi-major axis
6,841.017 km
Eccentricity
0.0001
Inclination
53.1594°
RAAN
100.5186°
Arg. of periapsis
72.659°
True anomaly
287.44122°
Mean anomaly
287.4521°
Eccentric anomaly
287.44666°
Mean motion
3.83586 °/min
Orbital period
93.85 mins
BSTAR
0.0008627
Loading maneuver chart data...
Computing Atmospheric mass density...
Loading historical data...
Loading historical data...
Loading historical data...
Loading historical data...
Loading historical data...
Loading historical data...
Loading historical data...

Documentation

Showing up to 5 results
|